Emerado, ND

11:41 PM CST on December 04, 2016 (GMT -0600)
Grand Forks International

Weather History for KGFK - February, 2014

Change the Weather History Date:

Friday, February 21, 2014

  Actual Average Record
Temperature  
Mean Temperature 3 °F 14 °F  
Max Temperature 9 °F 24 °F 49 °F (2000)
Min Temperature -3 °F 5 °F -30 °F (1956)
Degree Days  
Heating Degree Days 62 51  
Month to date heating degree days 1310 1139  
Since 1 July heating degree days 7402 6805  
Cooling Degree Days 0 0  
Month to date cooling degree days 0 0  
Year to date cooling degree days 0 0  
Moisture  
Dew Point -4 °F    
Average Humidity 78    
Maximum Humidity 87    
Minimum Humidity 69    
Precipitation  
Precipitation 0.00 in 0.03 in 0.11 in (1969)
Month to date precipitation 0.55 0.35  
Year to date precipitation 1.24 0.90  
Snow  
Snow 0.00 in 0.30 in 1.10 in (1969)
Month to date snowfall 5.4 4.7  
Since 1 July snowfall 45.7 35.3  
Snow Depth 11.00 in    
Sea Level Pressure  
Sea Level Pressure 29.70 in    
Wind  
Wind Speed 19 mph (NW)    
Max Wind Speed 26 mph    
Max Gust Speed 35 mph    
Visibility 9 miles    
Events Snow    
T = Trace of Precipitation, MM = Missing Value Source: NWS Daily Summary

Daily Weather History Graph

Daily Weather History Graph

Search for Another Location

Airport or City:

Trip Planner

Search our weather history database for the weather conditions in past years. The results will help you decide how hot, cold, wet, or windy it might be!

Date:

Astronomy

Feb. 21, 2014 Rise Set
Actual Time 7:24 AM CST 6:00 PM CST
Civil Twilight 6:52 AM CST 6:32 PM CST
Nautical Twilight 6:16 AM CST 7:08 PM CST
Astronomical Twilight 5:41 AM CST 7:44 PM CST
Moon 12:24 AM CST (2/21) 10:19 AM CST (2/21)
Length of Visible Light 11h 39m
Length of Day
10h 36m
Waning Gibbous, 60% of the Moon is Illuminated
Feb 21
Waning Gibbous
Feb 22
Last Quarter
Mar 1
New
Mar 8
First Quarter
Mar 16
Full

Hourly Weather History & Observations

Time (CST) Temp. Windchill Dew Point Humidity Pressure Visibility Wind Dir Wind Speed Gust Speed Precip Events Conditions
12:39 AM 3.2 °F -17.6 °F -2.2 °F 78% 29.64 in - NW 19.6 mph - N/A   Scattered Clouds
12:48 AM 1.4 °F -20.5 °F -2.2 °F 85% 29.64 in - NNW 20.7 mph - N/A   Mostly Cloudy
12:53 AM 1.9 °F -19.2 °F -2.9 °F 80% 29.70 in - NNW 19.6 mph - N/A   Mostly Cloudy
1:37 AM 1.4 °F -17.6 °F -4.0 °F 78% 29.62 in - NW 15.0 mph - N/A   Overcast
1:53 AM 1.0 °F -19.3 °F -5.1 °F 75% 29.68 in - NW 17.3 mph - N/A   Overcast
2:10 AM 1.4 °F -18.8 °F -5.8 °F 72% 29.62 in - NW 17.3 mph - N/A   Overcast
2:15 AM 1.4 °F -19.4 °F -5.8 °F 72% 29.62 in - NW 18.4 mph - N/A   Overcast
2:53 AM -0.0 °F -20.7 °F -5.1 °F 79% 29.67 in - NW 17.3 mph - N/A   Overcast
3:53 AM -0.0 °F -21.8 °F -6.0 °F 76% 29.66 in - NW 19.6 mph - N/A   Overcast
4:53 AM -0.0 °F -20.1 °F -6.0 °F 76% 29.67 in - NNW 16.1 mph - N/A   Mostly Cloudy
5:53 AM -0.9 °F -21.9 °F -6.0 °F 79% 29.68 in 8.0 mi NNW 17.3 mph - N/A   Partly Cloudy
6:53 AM -2.0 °F -23.3 °F -8.0 °F 76% 29.67 in 10.0 mi NW 17.3 mph - N/A   Scattered Clouds
7:53 AM -2.9 °F -25.6 °F -8.0 °F 79% 29.68 in 10.0 mi NW 19.6 mph - N/A   Scattered Clouds
8:53 AM -0.9 °F -22.4 °F -7.1 °F 75% 29.67 in 10.0 mi NW 18.4 mph - N/A   Scattered Clouds
9:53 AM 1.0 °F -20.4 °F -6.0 °F 72% 29.68 in 10.0 mi NW 19.6 mph - N/A   Scattered Clouds
10:53 AM 3.0 °F -17.8 °F -4.0 °F 73% 29.68 in 10.0 mi NW 19.6 mph - N/A   Scattered Clouds
11:53 AM 5.0 °F -17.1 °F -2.9 °F 70% 29.68 in 10.0 mi NW 24.2 mph - N/A   Scattered Clouds
12:53 PM 7.0 °F -13.6 °F -0.9 °F 70% 29.67 in 10.0 mi NW 21.9 mph 28.8 mph N/A   Scattered Clouds
1:53 PM 8.1 °F -12.6 °F -0.0 °F 70% 29.68 in 10.0 mi WNW 23.0 mph 31.1 mph N/A   Scattered Clouds
2:53 PM 9.0 °F -11.8 °F 1.0 °F 70% 29.69 in 6.0 mi NW 24.2 mph 31.1 mph N/A Snow Blowing Snow
3:53 PM 9.0 °F -10.0 °F 1.9 °F 73% 29.72 in 7.0 mi WNW 19.6 mph 31.1 mph N/A Snow Blowing Snow
4:53 PM 8.1 °F -10.2 °F 1.0 °F 73% 29.73 in 8.0 mi WNW 17.3 mph - N/A   Partly Cloudy
5:53 PM 7.0 °F -13.1 °F -0.0 °F 73% 29.75 in 9.0 mi NW 20.7 mph 26.5 mph N/A   Partly Cloudy
6:53 PM 5.0 °F -13.6 °F -2.0 °F 73% 29.77 in 10.0 mi WNW 16.1 mph - N/A   Clear
7:53 PM 3.0 °F -16.1 °F -2.9 °F 76% 29.79 in 10.0 mi WNW 16.1 mph - N/A   Clear
8:53 PM 3.0 °F -16.1 °F -4.0 °F 73% 29.81 in 10.0 mi WNW 16.1 mph - N/A   Clear
9:53 PM 1.9 °F -17.5 °F -5.1 °F 72% 29.82 in 10.0 mi WNW 16.1 mph - N/A   Clear
10:53 PM 1.0 °F -19.3 °F -6.0 °F 72% 29.83 in 10.0 mi WNW 17.3 mph - N/A   Clear
11:53 PM 1.0 °F -19.3 °F -6.0 °F 72% 29.83 in - WNW 17.3 mph - N/A   Clear